DLH6PL EPKT-EPWA

Flight info

Callsign DLH6PL
Flight time 0h 29m
Altitude 19000
Route KURON T709 KOTEK M866 LOGDA
Aircraft A20N/M-SDE2E3FGHIRWXY/LB1

Departure

Time 2026-05-04 18:52
Airport Katowice Wojciech Korfanty International Airport (EPKT)

Arrival

Time 2026-05-04 19:22
Airport Warsaw Chopin Airport (EPWA)
Time Latitude Longitude Altitude Speed Heading
2026-05-04 18:36 50.47182 19.07148 1006 ft 0 kts 180°
2026-05-04 18:43 50.47200 19.07148 1001 ft 3 kts 180°
2026-05-04 18:43 50.47218 19.07149 1006 ft 3 kts 171°
2026-05-04 18:44 50.47233 19.07133 1000 ft 3 kts 96°
2026-05-04 18:44 50.47233 19.07130 1000 ft 0 kts 86°
2026-05-04 18:47 50.47233 19.07140 1001 ft 2 kts 86°
2026-05-04 18:47 50.47234 19.07188 1004 ft 7 kts 90°
2026-05-04 18:47 50.47234 19.07285 1004 ft 11 kts 90°
2026-05-04 18:47 50.47233 19.07429 1005 ft 15 kts 90°
2026-05-04 18:48 50.47232 19.07612 1007 ft 18 kts 90°
2026-05-04 18:48 50.47232 19.07824 1005 ft 21 kts 90°
2026-05-04 18:48 50.47231 19.08061 1010 ft 22 kts 90°
2026-05-04 18:48 50.47230 19.08297 1009 ft 21 kts 90°
2026-05-04 18:49 50.47230 19.08521 1008 ft 20 kts 90°
2026-05-04 18:49 50.47229 19.08733 1010 ft 19 kts 90°
2026-05-04 18:49 50.47228 19.08934 1011 ft 18 kts 90°
2026-05-04 18:49 50.47227 19.09125 1013 ft 18 kts 90°
2026-05-04 18:50 50.47227 19.09334 1014 ft 20 kts 90°
2026-05-04 18:50 50.47227 19.09571 1016 ft 23 kts 90°
2026-05-04 18:50 50.47228 19.09831 1018 ft 25 kts 90°
2026-05-04 18:50 50.47264 19.10079 1020 ft 23 kts 52°
2026-05-04 18:51 50.47360 19.10269 1019 ft 22 kts 52°
2026-05-04 18:51 50.47460 19.10439 1020 ft 20 kts 20°
2026-05-04 18:51 50.47586 19.10415 1020 ft 18 kts 301°
2026-05-04 18:51 50.47596 19.10186 1018 ft 39 kts 269°
2026-05-04 18:52 50.47598 19.09382 1015 ft 107 kts 270°
2026-05-04 18:52 50.47598 19.07907 1038 ft 156 kts 273°
2026-05-04 18:52 50.47624 19.06222 1645 ft 150 kts 268°
2026-05-04 18:52 50.47643 19.04622 2363 ft 143 kts 266°
2026-05-04 18:53 50.47642 19.03061 2979 ft 146 kts 265°
2026-05-04 18:53 50.47597 19.01316 3429 ft 172 kts 262°
2026-05-04 18:53 50.47522 18.99313 3858 ft 198 kts 263°
2026-05-04 18:53 50.47475 18.96989 4338 ft 225 kts 269°
2026-05-04 18:54 50.47818 18.94490 5054 ft 246 kts 289°
2026-05-04 18:54 50.48854 18.92271 5892 ft 263 kts 316°
2026-05-04 18:54 50.50378 18.90590 6804 ft 272 kts 326°
2026-05-04 18:54 50.52125 18.89342 7757 ft 281 kts 340°
2026-05-04 18:55 50.54088 18.88961 8753 ft 291 kts
2026-05-04 18:55 50.57742 18.91901 10491 ft 313 kts 39°
2026-05-04 18:55 50.59253 18.94490 10837 ft 339 kts 58°
2026-05-04 18:56 50.60093 18.98051 11240 ft 358 kts 82°
2026-05-04 18:56 50.60346 19.02008 11945 ft 369 kts 88°
2026-05-04 18:56 50.60477 19.06079 12770 ft 376 kts 89°
2026-05-04 18:56 50.60590 19.10226 13617 ft 382 kts 90°
2026-05-04 18:57 50.60705 19.14436 14399 ft 388 kts 90°
2026-05-04 18:57 50.60823 19.18700 15225 ft 392 kts 89°
2026-05-04 18:57 50.60943 19.23011 16047 ft 396 kts 89°
2026-05-04 18:57 50.61063 19.27364 16866 ft 400 kts 89°
2026-05-04 18:58 50.61184 19.31760 17669 ft 405 kts 89°
2026-05-04 18:58 50.61305 19.36202 18180 ft 407 kts 89°
2026-05-04 18:58 50.61425 19.40657 18435 ft 408 kts 89°
2026-05-04 18:58 50.61543 19.45083 18640 ft 410 kts 89°
2026-05-04 18:59 50.61661 19.49578 18878 ft 412 kts 89°
2026-05-04 18:59 50.61777 19.54086 18956 ft 412 kts 89°
2026-05-04 18:59 50.61892 19.58594 18965 ft 412 kts 89°
2026-05-04 18:59 50.62005 19.63108 18963 ft 413 kts 89°
2026-05-04 19:00 50.62116 19.67641 18962 ft 414 kts 89°
2026-05-04 19:00 50.62225 19.72163 18964 ft 414 kts 89°
2026-05-04 19:00 50.62333 19.76697 18960 ft 414 kts 89°
2026-05-04 19:00 50.62439 19.81225 18965 ft 414 kts 90°
2026-05-04 19:01 50.62543 19.85749 18964 ft 414 kts 90°
2026-05-04 19:01 50.62646 19.90286 18962 ft 414 kts 90°
2026-05-04 19:01 50.62745 19.94755 18960 ft 414 kts 90°
2026-05-04 19:01 50.62844 19.99280 18962 ft 414 kts 89°
2026-05-04 19:02 50.62941 20.03801 18963 ft 413 kts 89°
2026-05-04 19:02 50.63037 20.08326 18957 ft 413 kts 89°
2026-05-04 19:02 50.63142 20.12850 18956 ft 414 kts 88°
2026-05-04 19:02 50.63503 20.17348 18948 ft 415 kts 79°
2026-05-04 19:03 50.64487 20.21612 18956 ft 415 kts 61°
2026-05-04 19:03 50.66234 20.25203 18958 ft 414 kts 41°
2026-05-04 19:03 50.68599 20.27735 18960 ft 411 kts 25°
2026-05-04 19:03 50.71177 20.29677 18963 ft 410 kts 23°
2026-05-04 19:04 50.73769 20.31568 18967 ft 411 kts 22°
2026-05-04 19:04 50.76380 20.33426 18951 ft 412 kts 22°
2026-05-04 19:04 50.79006 20.35260 18960 ft 413 kts 21°
2026-05-04 19:04 50.81636 20.37079 18956 ft 413 kts 21°
2026-05-04 19:05 50.84272 20.38892 18959 ft 413 kts 21°
2026-05-04 19:05 50.86913 20.40703 18954 ft 413 kts 21°
2026-05-04 19:05 50.89548 20.42510 18955 ft 413 kts 21°
2026-05-04 19:05 50.92149 20.44293 18956 ft 413 kts 21°
2026-05-04 19:06 50.94820 20.46126 18956 ft 413 kts 21°
2026-05-04 19:06 50.97420 20.47912 18950 ft 413 kts 21°
2026-05-04 19:06 51.00057 20.49725 18949 ft 413 kts 21°
2026-05-04 19:06 51.02725 20.51422 18948 ft 413 kts 18°
2026-05-04 19:07 51.05411 20.53030 18949 ft 412 kts 18°
2026-05-04 19:07 51.08100 20.54620 18948 ft 412 kts 18°
2026-05-04 19:07 51.10790 20.56200 18951 ft 412 kts 18°
2026-05-04 19:07 51.13481 20.57775 18950 ft 412 kts 18°
2026-05-04 19:08 51.16177 20.59351 18950 ft 412 kts 18°
2026-05-04 19:08 51.18883 20.60931 18894 ft 419 kts 18°
2026-05-04 19:08 51.21607 20.62524 18628 ft 413 kts 18°
2026-05-04 19:08 51.24282 20.64092 18082 ft 409 kts 18°
2026-05-04 19:09 51.26970 20.65665 17220 ft 413 kts 18°
2026-05-04 19:09 51.29672 20.67249 16489 ft 413 kts 18°
2026-05-04 19:09 51.32364 20.68831 15784 ft 412 kts 17°
2026-05-04 19:09 51.35048 20.70409 15076 ft 410 kts 17°
2026-05-04 19:10 51.37717 20.71980 14368 ft 408 kts 17°
2026-05-04 19:10 51.40377 20.73548 13641 ft 407 kts 17°
2026-05-04 19:10 51.43027 20.75111 12868 ft 404 kts 17°
2026-05-04 19:10 51.45655 20.76664 12170 ft 400 kts 17°
2026-05-04 19:11 51.48257 20.78204 11486 ft 396 kts 17°
2026-05-04 19:11 51.50829 20.79727 10787 ft 393 kts 17°
2026-05-04 19:11 51.53381 20.81240 10232 ft 386 kts 17°
2026-05-04 19:11 51.55855 20.82712 9984 ft 371 kts 17°
2026-05-04 19:12 51.58206 20.84114 9932 ft 350 kts 17°
2026-05-04 19:12 51.62675 20.86774 9699 ft 341 kts 17°
2026-05-04 19:12 51.64899 20.88096 9071 ft 340 kts 17°
2026-05-04 19:13 51.67107 20.89412 8581 ft 336 kts 18°
2026-05-04 19:13 51.69293 20.90716 8119 ft 334 kts 18°
2026-05-04 19:13 51.71461 20.92012 7655 ft 332 kts 18°
2026-05-04 19:13 51.73624 20.93306 7198 ft 330 kts 18°
2026-05-04 19:14 51.75772 20.94593 6748 ft 328 kts 18°
2026-05-04 19:14 51.77875 20.95856 6519 ft 316 kts 19°
2026-05-04 19:14 51.79892 20.97069 6336 ft 303 kts 19°
2026-05-04 19:14 51.81843 20.98243 6060 ft 295 kts 18°
2026-05-04 19:15 51.83761 20.99397 5634 ft 294 kts 18°
2026-05-04 19:15 51.85672 21.00546 5202 ft 293 kts 18°
2026-05-04 19:15 51.87575 21.01693 4796 ft 291 kts 18°
2026-05-04 19:15 51.89439 21.02817 4385 ft 289 kts 18°
2026-05-04 19:16 51.91310 21.03946 4005 ft 286 kts 18°
2026-05-04 19:16 51.93158 21.05063 3681 ft 280 kts 18°
2026-05-04 19:16 51.94945 21.06146 3508 ft 269 kts 18°
2026-05-04 19:16 51.96662 21.07188 3366 ft 258 kts 18°
2026-05-04 19:17 51.98306 21.08186 3240 ft 247 kts 18°
2026-05-04 19:17 51.99887 21.09131 3113 ft 236 kts 13°
2026-05-04 19:17 52.01458 21.09256 2997 ft 219 kts 348°
2026-05-04 19:17 52.02853 21.08681 2991 ft 197 kts 332°
2026-05-04 19:18 52.04043 21.07672 2885 ft 189 kts 326°
2026-05-04 19:18 52.05180 21.06658 2621 ft 183 kts 328°
2026-05-04 19:18 52.06265 21.05725 2377 ft 170 kts 328°
2026-05-04 19:18 52.07265 21.04856 2176 ft 157 kts 327°
2026-05-04 19:19 52.08179 21.04058 1996 ft 143 kts 327°
2026-05-04 19:19 52.09022 21.03322 1791 ft 133 kts 326°
2026-05-04 19:19 52.09833 21.02612 1625 ft 132 kts 327°
2026-05-04 19:19 52.10644 21.01903 1453 ft 132 kts 328°
2026-05-04 19:20 52.11455 21.01194 1278 ft 132 kts 328°
2026-05-04 19:20 52.12258 21.00492 1102 ft 131 kts 329°
2026-05-04 19:20 52.13060 20.99783 940 ft 132 kts 330°
2026-05-04 19:20 52.13865 20.99059 780 ft 133 kts 328°
2026-05-04 19:21 52.14686 20.98346 582 ft 134 kts 332°
2026-05-04 19:21 52.15506 20.97651 388 ft 132 kts 331°
2026-05-04 19:21 52.16269 20.96989 351 ft 107 kts 332°
2026-05-04 19:21 52.16760 20.96551 347 ft 54 kts 330°
2026-05-04 19:22 52.17023 20.96320 337 ft 41 kts 335°
2026-05-04 19:22 52.17249 20.96243 339 ft 22 kts
2026-05-04 19:22 52.17375 20.96264 349 ft 11 kts 30°
2026-05-04 19:22 52.17388 20.96282 347 ft 0 kts 56°
2026-05-04 19:24 52.17389 20.96286 342 ft 1 kts 56°
2026-05-04 19:24 52.17400 20.96312 351 ft 4 kts 56°
2026-05-04 19:24 52.17419 20.96360 352 ft 6 kts 57°
2026-05-04 19:24 52.17443 20.96427 345 ft 8 kts 62°
2026-05-04 19:25 52.17469 20.96517 343 ft 9 kts 80°
2026-05-04 19:25 52.17435 20.96599 347 ft 10 kts 155°
2026-05-04 19:25 52.17367 20.96657 342 ft 12 kts 152°
2026-05-04 19:25 52.17287 20.96727 345 ft 14 kts 152°
2026-05-04 19:26 52.17194 20.96808 342 ft 16 kts 152°
2026-05-04 19:26 52.17094 20.96895 348 ft 17 kts 152°
2026-05-04 19:26 52.16995 20.96980 347 ft 16 kts 152°
2026-05-04 19:26 52.16924 20.97058 342 ft 5 kts 103°
2026-05-04 19:27 52.16935 20.97109 353 ft 5 kts 66°
2026-05-04 19:27 52.16948 20.97160 346 ft 5 kts 66°
2026-05-04 19:27 52.16958 20.97196 343 ft 0 kts 66°